If you wish to contribute or participate in the discussions about articles you are invited to join SKYbrary as a registered user

 Actions

Istanbul Airport

From SKYbrary Wiki

LTFM /
Revision as of 07:06, 1 July 2020 by Admin (talk | contribs) (Text replacement - "{{Show_Airportmaps}} " to "{{ShowAirportMap|TerrainZoom=10|AirportLayoutZoom=13}} ")
(diff) ← Older revision | Latest revision (diff) | Newer revision → (diff)
Airport
ICAO: LTFM – IATA: IST
Summary
Name Istanbul Airport
Region Europe
Territory Turkey TR.gif
Location Arnavutkoy, Istanbul
Serving Istanbul
Elevation 99.06 m
325 ft99.06 m
Coordinates 41° 15' 41.47" N, 28° 44' 33.79" E
Runways
Designator Length Width Surface ROPS


METAR
Observation LTFM 200420Z 05011KT 9999 BKN033 20/11 Q1017 NOSIG
Station Istanbul New Airport
Date/Time 20 September 2020 04:20:00
Wind direction 50°
Wind speed 11 kts
Lowest cloud amount broken clouds
Temperature 20°C
Dew point 11°C
Humidity 56%
QNH 1017 hPa
Weather condition n/a

Istanbul Airport is the main international airport serving Istanbul, Turkey. It is located in the Arnavutköy district on the European side of the city.

Climatology

Dry-summer subtropical ”Mediterranean" climate (Köppen climate classification Csa)

Maps

Terrain

Loading map...

Airport Layout

Loading map...


Accidents & Serious Incidents at or in vicinity of LTFM

None on SKYbrary